Regional Weather Roundup
Issued by NWS Mobile, AL

Home | Current Version | Previous Version | Text Only | Print | Product List | Glossary On
Versions: 1 2 3 4 5 6 7 8 9 10 11 12 13 14 15 16 17 18 19 20 21 22 23 24 25 26 27
000
ASUS44 KMOB 241112
RWRMOB
REGIONAL WEATHER ROUNDUP
NATIONAL WEATHER SERVICE MOBILE AL
600 AM CDT WED AUG 24 2016

NOTE: "FAIR" INDICATES FEW OR NO CLOUDS BELOW 12,000 FEET WITH NO
      SIGNIFICANT WEATHER AND/OR OBSTRUCTIONS TO VISIBILITY.

  * THESE STATIONS ARE PART OF THE UNIVERSITY OF SOUTH ALABAMA
    MESONET AND ARE NOT UNDER NWS OR FAA QUALITY CONTROL.

ALZ061>064-241200-
COASTAL ALABAMA

CITY           SKY/WX    TMP DP  RH WIND       PRES   REMARKS
MOBILE REG APT MOCLDY    78  75  90 N3        30.14R
BROOKLEY FIELD CLOUDY    79  77  94 N3        30.14R
USA CAMPUS*    NOT AVBL
DOG RIVER*     NOT AVBL


CITY           SKY/WX    TMP DP  RH WIND       PRES   REMARKS
MOUNT VERNON*  NOT AVBL
SARALAND*      NOT AVBL
BAY MINETTE*   NOT AVBL
LOXLEY*        NOT AVBL
ROBERTSDALE*   NOT AVBL
FAIRHOPE*      NOT AVBL
ELBERTA*       NOT AVBL
FOLEY*         NOT AVBL
GRAND BAY*     NOT AVBL
DAUPHIN ISLND* NOT AVBL
BON SCOUR NWR* NOT AVBL
GULF SHORES    PTCLDY    77  77 100 CALM      30.13R

$$

ALZ051>060-241200-
INTERIOR SOUTHWEST AND SOUTH CENTRAL ALABAMA

CITY           SKY/WX    TMP DP  RH WIND       PRES   REMARKS
GREENVILLE     CLEAR     75  71  87 E3        30.18R
EVERGREEN      CLEAR     74  72  93 CALM      30.16S
CASTLEBERRY*   NOT AVBL
ATMORE*        NOT AVBL
DIXIE*         NOT AVBL
ANDALUSIA/OPP  CLEAR     77  73  87 E3        30.17R
ANDALUSIA*     NOT AVBL
FLORALA APT    PTCLDY    74  72  93 E6        30.18R
FLORALA*       NOT AVBL

$$

FLZ001>006-241200-
WESTERN FLORIDA PANHANDLE

CITY           SKY/WX    TMP DP  RH WIND       PRES   REMARKS
PENSACOLA      PTCLDY    79  74  84 E6        30.13R
NAS PENSACOLA  MOCLDY    81  78  91 E7        30.12R
MILTON         MOCLDY    75  73  93 E5        30.14R
WHTNG S FIELD  PTCLDY    79  76  90 E5        30.14R


CITY           SKY/WX    TMP DP  RH WIND       PRES   REMARKS
WALNUT HILL*   NOT AVBL
JAY*           NOT AVBL
DUKE FIELD     CLEAR     74  72  93 E5        30.14R
CRESTVIEW      MOCLDY    74  72  93 CALM      30.17R
VALPARAISO     PTCLDY    78  73  86 E6        30.14R
DESTIN         CLEAR     81  77  88 E6        30.14R

$$

MSZ076-079-241200-
INTERIOR SOUTHEAST MISSISSIPPI

CITY           SKY/WX    TMP DP  RH WIND       PRES   REMARKS
LEAKESVILLE*   NOT AVBL
AGRICOLA*      NOT AVBL

$$

MARINE OBSERVATIONS

STATION/POSITION TIME  TEMP    WIND        PRES    WAVE
                       AIR SEA DIR/SP/G            HT/PER
                 (UTC) (F)     (DEG/KT/KT) (MB)    (FT/S)
PASCAGOULA       1000   81     360/  5/  6 1019.5R
PETIT BOIS ISLND 1000   84     350/  7/  9 1020.2S
GRAND BAY        0945   79     360/  5     1021.0S
KATRINA CUT      1000   85     360/  9     1020.3S
CEDAR POINT      1000   81     350/  7     1019.3F
E DAUPHIN ISLAND 1000   84     340/ 11/ 12 1019.1F
MIDDLE BAY LIGHT 1000   85     360/ 10     1019.3S
USCG MOBILE BAY  1000   80 89  360/  3/  4 1020.3R
STATE DOCKS      1000   81 87              1019.7R
MEAHER PARK      1000   80     360/  3     1019.3F
WEEKS BAY        0900   79                   N/A
FORT MORGAN      1000   85     360/ 12/ 13 1018.9F
12 S ORANGE BCH  1050   84 87   40/  6/  8 1020.0R   1
PENSACOLA BAY    1000   83 88  100/  1/  5 1019.9F
64 S DAUPHIN ISL 1000   86 89  320/  6/  8 1019.0F
67 S FORT MORGAN 1030   85        CALM     1019.6R

$$

SELECTED LOCATIONS ACROSS THE REGION

CITY           SKY/WX    TMP DP  RH WIND       PRES   REMARKS
NEW ORLEANS    CLOUDY    82  77  84 CALM      30.12S
GULFPORT       MOCLDY    78  75  90 CALM      30.11S
PASCAGOULA AP  MOCLDY    76  76 100 CALM      30.13R
PASCAGOULA*    NOT AVBL
HATTIESBURG    PTCLDY    76  74  93 CALM      30.15R
LAUREL         CLEAR     73  72  94 CALM      30.16R
MERIDIAN       CLEAR     76  72  87 CALM      30.16R
JACKSON        CLEAR     75  73  93 CALM      30.15R
MONTGOMERY     CLEAR     76  71  85 E6        30.19R
TROY           PTCLDY    74  73  97 NE3       30.19R
KINSTON*       NOT AVBL
GENEVA*        NOT AVBL
ASHFORD*       NOT AVBL
DOTHAN         PTCLDY    75  75 100 E6        30.21R
PANAMA CITY    CLEAR     76  74  93 NE3       30.14R

$$





USA.gov is the U.S. government's official web portal to all federal, state and local government web resources and services.